TimeEST,TemperatureF,Dew PointF,Humidity,Sea Level PressureIn,VisibilityMPH,Wind Direction,Wind SpeedMPH,Gust SpeedMPH,PrecipitationIn,Events,Conditions,WindDirDegrees,DateUTC
12:14 AM,31.1,27.5,87,29.75,7.0,SSW,4.6,-,N/A,,Clear,200,2013-02-14 05:14:00
12:35 AM,31.1,27.3,86,29.75,7.0,SSW,3.5,-,N/A,,Clear,210,2013-02-14 05:35:00
12:55 AM,31.5,27.9,87,29.75,7.0,SSW,3.5,-,N/A,,Clear,200,2013-02-14 05:55:00
1:14 AM,30.6,27.1,87,29.75,5.0,SSW,4.6,-,N/A,,Clear,200,2013-02-14 06:14:00
1:35 AM,30.4,27.5,89,29.75,5.0,SSW,3.5,-,N/A,,Scattered Clouds,200,2013-02-14 06:35:00
1:55 AM,30.9,28.0,89,29.75,5.0,SSW,3.5,-,N/A,,Overcast,200,2013-02-14 06:55:00
2:14 AM,31.5,28.8,90,29.75,5.0,SW,3.5,-,N/A,,Overcast,220,2013-02-14 07:14:00
2:35 AM,31.6,28.9,90,29.75,5.0,SSW,4.6,-,N/A,,Overcast,210,2013-02-14 07:35:00
2:54 AM,32.0,29.3,90,29.75,5.0,SSW,3.5,-,N/A,,Overcast,200,2013-02-14 07:54:00
3:15 AM,31.8,29.1,90,29.75,5.0,Calm,Calm,-,N/A,,Overcast,0,2013-02-14 08:15:00
3:34 AM,32.0,29.3,90,29.75,5.0,South,3.5,-,N/A,,Overcast,190,2013-02-14 08:34:00
3:55 AM,32.0,29.7,91,29.74,5.0,SSW,5.8,-,N/A,,Overcast,200,2013-02-14 08:55:00
4:15 AM,32.4,30.0,91,29.74,5.0,SSW,6.9,-,N/A,,Overcast,200,2013-02-14 09:15:00
4:34 AM,32.0,29.3,90,29.74,5.0,South,3.5,-,N/A,,Overcast,190,2013-02-14 09:34:00
4:55 AM,32.0,29.3,90,29.74,5.0,SSW,5.8,-,N/A,,Mostly Cloudy,200,2013-02-14 09:55:00
5:15 AM,32.0,29.3,90,29.73,5.0,SSW,5.8,-,N/A,,Scattered Clouds,200,2013-02-14 10:15:00
5:34 AM,32.0,29.8,92,29.73,5.0,SSW,5.8,-,N/A,,Mostly Cloudy,200,2013-02-14 10:34:00
5:55 AM,32.0,30.0,92,29.73,5.0,South,5.8,-,N/A,,Scattered Clouds,190,2013-02-14 10:55:00
6:14 AM,32.2,30.0,92,29.72,5.0,SSW,6.9,-,N/A,,Mostly Cloudy,200,2013-02-14 11:14:00
6:34 AM,32.0,30.0,92,29.72,5.0,SSW,5.8,-,N/A,,Mostly Cloudy,200,2013-02-14 11:34:00
6:55 AM,32.2,30.0,92,29.72,5.0,South,5.8,-,N/A,,Mostly Cloudy,190,2013-02-14 11:55:00
7:14 AM,32.4,30.2,92,29.72,5.0,South,6.9,-,N/A,,Mostly Cloudy,180,2013-02-14 12:14:00
7:35 AM,32.9,30.2,90,29.71,7.0,South,8.1,-,N/A,,Overcast,180,2013-02-14 12:35:00
7:54 AM,33.3,30.2,89,29.71,7.0,South,10.4,-,N/A,,Overcast,180,2013-02-14 12:54:00
8:14 AM,33.8,30.2,87,29.70,5.0,South,8.1,-,N/A,,Overcast,180,2013-02-14 13:14:00
8:35 AM,33.8,30.4,87,29.70,7.0,South,8.1,-,N/A,,Overcast,190,2013-02-14 13:35:00
8:54 AM,34.0,30.7,88,29.70,5.0,South,10.4,-,N/A,,Overcast,180,2013-02-14 13:54:00
9:15 AM,35.2,31.3,85,29.70,7.0,South,9.2,-,N/A,,Overcast,180,2013-02-14 14:15:00
9:35 AM,35.8,31.6,85,29.69,7.0,South,13.8,19.6,N/A,,Overcast,180,2013-02-14 14:35:00
9:54 AM,37.0,32.0,82,29.69,7.0,South,13.8,-,N/A,,Scattered Clouds,190,2013-02-14 14:54:00
10:15 AM,37.4,32.0,81,29.69,7.0,SSW,15.0,-,N/A,,Scattered Clouds,200,2013-02-14 15:15:00
10:35 AM,38.3,32.0,78,29.69,10.0,SW,16.1,25.3,N/A,,Overcast,220,2013-02-14 15:35:00
10:54 AM,37.4,32.0,81,29.69,7.0,SW,17.3,26.5,N/A,,Overcast,220,2013-02-14 15:54:00
11:15 AM,37.8,32.0,80,29.69,10.0,SW,12.7,24.2,N/A,,Overcast,220,2013-02-14 16:15:00
11:35 AM,38.8,32.2,77,29.69,10.0,SW,12.7,21.9,N/A,,Overcast,230,2013-02-14 16:35:00
11:54 AM,38.3,32.0,78,29.69,10.0,SW,13.8,21.9,N/A,,Overcast,220,2013-02-14 16:54:00
12:15 PM,39.2,32.2,76,29.69,10.0,SW,13.8,18.4,N/A,,Overcast,220,2013-02-14 17:15:00
12:34 PM,39.2,32.0,75,29.69,10.0,SW,12.7,20.7,N/A,,Overcast,230,2013-02-14 17:34:00
12:55 PM,38.7,32.0,77,29.68,10.0,SW,11.5,19.6,N/A,,Overcast,220,2013-02-14 17:55:00
1:15 PM,38.7,32.0,77,29.68,10.0,SW,12.7,18.4,N/A,,Overcast,220,2013-02-14 18:15:00
1:34 PM,38.5,32.0,78,29.68,10.0,SW,9.2,-,N/A,,Overcast,220,2013-02-14 18:34:00
1:55 PM,38.7,32.0,77,29.67,10.0,SW,10.4,18.4,N/A,,Overcast,220,2013-02-14 18:55:00
2:14 PM,38.5,32.0,78,29.67,10.0,SW,6.9,-,N/A,,Overcast,230,2013-02-14 19:14:00
2:35 PM,37.8,30.2,74,29.68,10.0,West,12.7,25.3,N/A,,Overcast,270,2013-02-14 19:35:00
2:55 PM,37.4,29.8,74,29.69,10.0,West,15.0,25.3,N/A,,Overcast,260,2013-02-14 19:55:00
3:14 PM,37.8,30.2,74,29.70,10.0,West,12.7,-,N/A,,Overcast,260,2013-02-14 20:14:00
3:35 PM,38.3,28.9,69,29.71,10.0,West,10.4,21.9,N/A,,Overcast,260,2013-02-14 20:35:00
3:55 PM,38.3,28.4,68,29.72,10.0,West,9.2,23.0,N/A,,Overcast,260,2013-02-14 20:55:00
4:14 PM,38.3,28.0,67,29.72,10.0,West,13.8,20.7,N/A,,Overcast,260,2013-02-14 21:14:00
4:35 PM,38.3,28.0,67,29.73,10.0,WSW,15.0,25.3,N/A,,Overcast,250,2013-02-14 21:35:00
4:55 PM,37.8,28.2,68,29.74,10.0,West,16.1,20.7,N/A,,Overcast,260,2013-02-14 21:55:00
5:14 PM,37.4,28.4,70,29.75,10.0,WSW,11.5,23.0,N/A,,Overcast,250,2013-02-14 22:14:00
5:35 PM,37.0,29.1,73,29.77,10.0,West,20.7,31.1,N/A,,Overcast,260,2013-02-14 22:35:00
5:55 PM,36.0,28.9,76,29.79,10.0,West,23.0,35.7,N/A,,Overcast,280,2013-02-14 22:55:00
6:14 PM,35.6,28.4,75,29.80,10.0,West,17.3,32.2,N/A,,Overcast,280,2013-02-14 23:14:00
6:35 PM,35.1,27.9,75,29.81,10.0,West,17.3,28.8,N/A,,Overcast,280,2013-02-14 23:35:00
6:54 PM,35.1,27.5,74,29.82,10.0,West,17.3,24.2,N/A,,Overcast,270,2013-02-14 23:54:00
7:15 PM,34.9,27.3,74,29.84,10.0,West,21.9,26.5,N/A,,Overcast,280,2013-02-15 00:15:00
7:35 PM,34.7,27.1,74,29.85,10.0,West,17.3,25.3,N/A,,Overcast,280,2013-02-15 00:35:00
7:54 PM,34.7,27.0,73,29.86,10.0,West,16.1,27.6,N/A,,Overcast,280,2013-02-15 00:54:00
8:15 PM,34.2,26.1,72,29.86,10.0,West,16.1,-,N/A,,Overcast,280,2013-02-15 01:15:00
8:35 PM,33.8,25.3,71,29.87,10.0,West,18.4,24.2,N/A,,Overcast,280,2013-02-15 01:35:00
8:54 PM,33.6,24.8,70,29.87,10.0,West,17.3,23.0,N/A,,Overcast,280,2013-02-15 01:54:00
9:15 PM,33.3,24.6,71,29.88,10.0,West,17.3,21.9,N/A,,Overcast,280,2013-02-15 02:15:00
9:35 PM,33.3,24.4,70,29.89,10.0,West,19.6,25.3,N/A,,Overcast,280,2013-02-15 02:35:00
9:54 PM,32.9,24.4,71,29.90,10.0,West,20.7,27.6,N/A,,Overcast,280,2013-02-15 02:54:00
10:15 PM,32.9,24.4,71,29.90,10.0,West,17.3,28.8,N/A,,Overcast,280,2013-02-15 03:15:00
10:35 PM,32.9,24.6,72,29.91,10.0,West,16.1,19.6,N/A,,Overcast,270,2013-02-15 03:35:00
10:54 PM,32.5,24.8,73,29.91,10.0,West,16.1,21.9,N/A,,Overcast,270,2013-02-15 03:54:00
11:15 PM,32.7,25.0,73,29.91,10.0,West,13.8,19.6,N/A,,Overcast,270,2013-02-15 04:15:00
11:34 PM,32.4,25.3,75,29.91,10.0,West,13.8,20.7,N/A,,Overcast,270,2013-02-15 04:34:00
11:54 PM,32.4,25.5,76,29.91,10.0,West,9.2,18.4,N/A,,Overcast,270,2013-02-15 04:54:00